Location: Unspecified
(42.3650°N, 71.1030°W)
Time: 15:14:25
(UTC+00:00)

Tiros 1 - Pass Details

Date: 28 June 2024
Orbit: 624 x 656 km, 48.4° (Epoch: 13 July)

Event Time Altitude Azimuth Distance (km) Brightness Sun altitude
Rises 00:50:58 0° 189° (S) 2,891 10.2 -4.7°
Reaches altitude 10° 00:54:14 10° 165° (SSE) 1,986 9.2 -5.1°
Maximum altitude 00:56:40 14° 132° (SE) 1,715 8.7 -5.5°
Drops below altitude 10° 00:59:07 10° 100° (E) 1,991 9.1 -5.9°
Sets 01:02:23 0° 76° (ENE) 2,903 10.2 -6.3°
